Regional Weather Roundup
Issued by NWS

Home | Current Version | Previous Version | Text Only | Print | Product List | Glossary On
Versions: 1 2 3 4 5 6 7 8 9 10 11 12 13 14 15 16 17 18 19 20 21 22 23 24 25 26 27 28 29 30 31 32 33 34 35 36 37 38 39 40 41 42 43 44 45 46 47 48 49 50
000
ASUS43 KDMX 231001
RWRIA

WEATHER ROUNDUP FOR IOWA
NATIONAL WEATHER SERVICE DES MOINES IA
400 AM CST THU NOV 23 2017

NOTE: "FAIR" INDICATES FEW OR NO CLOUDS BELOW 12,000 FEET WITH NO
SIGNIFICANT WEATHER AND/OR OBSTRUCTIONS TO VISIBILITY.

* - THESE STATIONS ARE NOT NWS STATIONS...THUS NOT UNDER NWS
QUALITY CONTROL.  THEY ALSO DO NOT REPORT WEATHER SUCH
AS PRECIPITATION OR FOG.

IAZ001>003-012>014-020>022-031>034-043>046-231100-
   NORTHWEST IOWA

CITY           SKY/WX    TMP DP  RH WIND       PRES   REMARKS
CARROLL *      CLOUDY    34  23  64 W12       29.94S WCI  25
CHEROKEE *     CLOUDY    31  24  77 CALM      29.96S
DENISON *      CLOUDY    30  21  69 W3        29.98S
LE MARS *      CLOUDY    28  25  86 CALM      29.97S
ORANGE CITY *  CLOUDY    30  27  86 NW5       29.96S WCI  25
SHELDON *      CLOUDY    27  21  80 NW8       29.94S WCI  18
SIOUX CITY     CLOUDY    26  20  77 CALM      29.99R
SPENCER        CLOUDY    25  20  81 NW5       29.94F WCI  19
STORM LAKE *   CLOUDY    30  23  74 W13       29.94R WCI  20
$$

IAZ055>058-069>071-079>083-090>094-231100-
   SOUTHWEST IOWA

CITY           SKY/WX    TMP DP  RH WIND       PRES   REMARKS
ATLANTIC *     CLEAR     27  21  80 S5        29.98S WCI  21
AUDUBON *      CLOUDY    30  21  69 CALM      29.97F
CLARINDA *       N/A     28  21  74 CALM      30.02S
COUNCIL BLFS * CLEAR     32  23  69 SW6       29.98F WCI  26
CRESTON *      CLOUDY    30  21  69 SW8       29.99S WCI  23
HARLAN  *      CLOUDY    25  23  93 CALM      30.01F
LAMONI         CLEAR     30  20  66 S10       29.99F WCI  21
RED OAK *      CLEAR     28  21  74 CALM      30.00S
SHENANDOAH *   CLEAR     34  23  64 SW3       30.01S
$$

IAZ047>049-059>061-072>074-084-231100-
   CENTRAL IOWA

CITY           SKY/WX    TMP DP  RH WIND       PRES   REMARKS
AMES           CLOUDY    28  21  75 CALM      29.96S
ANKENY *       CLOUDY    28  19  69 S5        29.97F WCI  23
BOONE *        CLOUDY    30  19  64 SW9       29.93F WCI  22
CHARITON *     CLEAR     34  19  55 SW10      29.98S WCI  26
DES MOINES     CLOUDY    32  20  61 SW8       29.97F WCI  25
GRINNELL*      CLOUDY    30  19  64 S8        29.97F WCI  23
KNOXVILLE *    CLOUDY    34  18  51 SW9       29.97S WCI  26
MARSHALLTOWN   CLOUDY    30  19  63 SW7       29.95F WCI  23
NEWTON *       CLOUDY    30  19  64 SW9       29.97S WCI  22
PELLA *        CLOUDY    32  19  58 SW6       29.99F WCI  27
PERRY *          N/A     25  18  76 SW6       29.96S WCI  18
$$

IAZ004>006-015-016-023>025-035-036-231100-
   NORTH CENTRAL IOWA

CITY           SKY/WX    TMP DP  RH WIND       PRES   REMARKS
ALGONA *       CLOUDY    23  18  80 SW5       29.92F WCI  17
CLARION *      CLOUDY    23  19  86 S6        29.94S WCI  16
ESTHERVILLE    CLOUDY    29  22  75 NW12      29.93R WCI  19
FORT DODGE *   CLOUDY    27  19  72 SW3       29.94S
MASON CITY     CLOUDY    26  17  68 SW3       29.94S
FOREST CITY *    N/A     23  19  86 CALM      29.93S
WEBSTER CITY * CLOUDY    25  16  68 S6        29.92F WCI  18
IOWA FALLS *     N/A     28  20  73 S6        29.95S WCI  21
$$

IAZ007>011-017>019-026>030-037>042-050>054-066-231100-
   NORTHEAST IOWA

CITY           SKY/WX    TMP DP  RH WIND       PRES   REMARKS
CEDAR RAPIDS   CLEAR     29  19  66 S9        29.97F WCI  20
CHARLES CITY * CLOUDY    25  18  74 S8        29.94S WCI  16
CLINTON *      CLOUDY    30  21  69 S8        30.02F WCI  22
DECORAH *      CLOUDY    28  18  64 S5        29.93S WCI  23
DUBUQUE        CLEAR     27  19  72 S12       29.97F WCI  17
MONTICELLO *   CLEAR     28  19  69 S7        29.98F WCI  21
OELWEIN *      CLOUDY    27  19  74 S8        29.95F WCI  18
WATERLOO       CLOUDY    27  17  66 S6        29.95F WCI  20
$$

IAZ064-065-067-068-078-231100-
   EAST CENTRAL IOWA

CITY           SKY/WX    TMP DP  RH WIND       PRES   REMARKS
DAVENPORT      CLOUDY    32  19  58 S14       30.03F WCI  22
IOWA CITY      CLEAR     32  19  58 S7        30.01F WCI  26
MT. PLEASANT * CLEAR     32  19  58 S14       30.02F WCI  22
MUSCATINE *    CLEAR     32  19  59 S10       30.03F WCI  24
QUAD CITIES    CLOUDY    34  18  52 S9        30.01F WCI  27
$$

IAZ062-063-075>077-085>089-095>099-231100-
   SOUTHEAST IOWA

CITY           SKY/WX    TMP DP  RH WIND       PRES   REMARKS
BURLINGTON     CLEAR     32  21  64 S12       30.04F WCI  23
FAIRFIELD *    CLEAR     32  18  55 S8        29.99F WCI  25
FORT MADISON * CLEAR     32  21  64 S8        30.04F WCI  25
KEOKUK *       PTCLDY    32  19  59 S9G15     30.04F WCI  24
OSKALOOSA *      N/A     30  21  69 SW8       29.99F WCI  22
OTTUMWA        CLEAR     32  19  58 SW9       29.99F WCI  24
WASHINGTON *   CLEAR     30  19  64 S12       30.01F WCI  21
$$

ABBREVIATIONS USED IN REMARKS
   TC - TEMPERATURES IN CELSIUS
  WCI - WIND CHILL INDEX
   HX - HEAT INDEX
  VSB - VISIBILITY
$$




USA.gov is the U.S. government's official web portal to all federal, state and local government web resources and services.